[Date Prev][Date Next][Thread Prev][Thread Next] - [Date Index][Thread Index][Author Index]
2 Line ISS Keps & Pcsat1 12-3
- Subject: [sarex] 2 Line ISS Keps & Pcsat1 12-3
- From: "Dave Larsen PhD" <doc@xxxxxxxxxxx>
- Date: Sat, 3 Dec 2005 05:20:49 -0800
ISS
1 25544U 98067A 05337.17921296 .00013333 00000-0 10123-3 0 8683
2 25544 051.6426 114.7979 0008993 357.6464 355.7960 15.72662367402273PCSAT 1
26931U 01043C 05336.80727290 -.00000044 00000-0 14995-4 0 17922 26931
067.0488 153.4975 0005826 275.8475 084.1958 14.29414094217866
----
Via the sarex mailing list at AMSAT.ORG courtesy of AMSAT-NA.
To unsubscribe, send "unsubscribe sarex" to Majordomo@amsat.org
AMSAT Home